SCP
0 0 0 0 0 0 0 0 0 0 0 0 0 0 0 0 0 0 0 0 0 0 0 0 0 0 0 0 0 0 0 0
0 0 0 0 0 0 0 0 0 0 0 0 0 0 0 0 0 0 0 0 0 0 0 0 0 0 0 0 0 0 0 0
0 -0 0 0 0 0 0 0 0 0 0 0 0 0 0 0 0 0 0 0 0 0 0 0 0 0 0 0 0 0 0 0
-0 -0 -0 0 0 0 0 0 0 0 0 0 0 0 0 0 0 0 0 0 0 0 0 0 0 0 0 0 0 0 0 0
-0 0 0 0 0 0 0 0 0 0 0 0 0 0 0 0 0 0 0 0 0 0 0 0 0 0 0 0 0 0 0 0
0 0 0 0 0 0 0 0 0 0 0 0 0 0 0 0 0 0 0 0 0 0 0 0 0 0 0 0 0 0 0 0
0 0 0 0 0 0 0 0 0 0 0 0 0 0 0 0 0 0 0 0 0 0 0 0 0 0 0 0 0 0 0 0
0 0 0 0 0 0 0 0 0 0 0 0 0 0 0 0 0 0 0 0 0 0 0 0 0 0 0 0 0 0 0 0
0 0 0 0 -0 -0 -0 -0 -0 -0 -0 0 0 0 0 0 0 0 0 0 0 0 0 0 0 0 0 0 0 0 0 0
0 0 -0 -0 -0 -0 -0 -0 -0 -0 -0 -0 0 0 0 0 0 0 0 0 0 0 0 0 0 0 0 0 0 0 0 0
-0 -0 -0 -0 -0 -0 -0 -0 -0 -0 -0 -0 -0 0 0 0 0 0 0 0 0 0 0 0 0 0 0 0 0 0 0 0
-0 -0 -0 -0 -0 -0 -0 -0 -0 -0 -0 -0 -0 0 0 0 0 0 0 0 0 0 0 0 0 0 0 0 0 0 0 0
-0 -0 -0 -0 -0 -0 -0 -0 -0 -0 -0 -0 -0 -0 -0 0 0 0 0 0 0 0 0 0 0 0 0 0 0 0 0 0
-0 -0 -0 -0 -0 -0 -0 -0 -0 -0 -0 -0 -0 -0 -0 -0 -0 0 0 0 0 0 0 0 0 0 0 0 0 0 0 0
-0 -0 -0 -0 -0 -0 0 0 -0 -0 -0 -0 -0 -0 -0 -0 -0 0 0 0 0 0 0 0 0 0 0 0 0 0 0 0
-0 -0 -0 0 -0 0 0 0 0 0 -0 -0 -0 -0 -0 -0 0 0 0 0 0 0 0 0 0 0 0 0 0 0 0 0
0 0 0 0 0 0 0 0 0 0 0 -0 -0 -0 -0 -0 -0 -0 -0 0 0 0 0 0 0 0 0 0 0 0 0 0
0 0 0 0 0 0 0 0 0 0 0 0 0 0 -0 0 0 -0 -0 -0 -0 0 0 0 0 0 0 0 0 0 0 0
0 0 0 0 0 0 0 0 0 0 0 0 0 0 0 0 0 0 0 0 0 0 0 0 0 0 0 0 0 0 0 0
0 0 0 0 0 0 0 0 0 0 0 0 0 0 0 0 0 0 0 0 0 0 0 0 0 0 0 0 0 0 0 0
Wind_Speed_500mb
34 41 41 37 34 30 32 30 29 28 41 56 66 75 82 89 99 102 101 98 94 92 90 86 85 82 80 81 82 89 92 94
40 41 44 36 36 35 36 35 30 29 29 35 51 60 66 78 86 92 94 98 96 93 92 93 92 88 85 84 83 87 88 90
44 45 45 40 40 41 45 44 40 39 36 31 33 45 59 70 78 84 90 92 94 93 93 95 95 93 92 89 87 90 91 91
49 49 48 38 37 41 42 45 46 44 44 39 36 38 43 54 64 74 82 87 90 90 95 97 99 98 97 93 90 92 92 93
42 36 31 38 45 48 48 46 49 45 43 45 44 42 44 48 51 59 68 78 84 87 89 91 94 97 98 97 94 95 94 92
28 29 42 49 58 58 56 57 56 57 55 50 48 47 46 48 51 55 62 67 74 79 84 89 91 96 95 96 96 95 92 92
39 46 55 62 65 66 67 66 65 63 56 54 57 55 51 51 52 53 58 64 69 75 81 85 92 97 96 95 95 94 93 94
52 59 63 68 72 75 78 79 73 66 63 60 58 61 59 58 58 57 57 61 69 77 82 88 90 94 94 93 92 93 92 91
60 68 72 74 74 80 84 85 84 80 71 65 67 70 67 66 66 63 61 63 68 70 78 83 85 87 85 84 85 87 83 81
64 70 78 82 85 91 88 88 88 89 89 79 68 72 76 75 73 71 69 69 68 71 72 81 86 83 81 77 80 83 85 84
77 81 84 87 92 96 97 95 91 93 93 93 86 77 77 78 79 78 73 77 71 75 75 74 80 79 81 79 81 84 83 79
85 90 92 93 95 98 100 100 101 95 95 97 95 90 81 80 78 80 81 79 80 76 77 81 77 79 79 78 79 81 79 80
93 96 97 97 96 100 104 105 103 104 106 104 101 97 92 85 82 80 83 82 81 84 83 83 83 82 82 84 84 81 81 84
96 100 95 91 89 95 100 103 109 112 110 109 105 99 98 94 88 84 81 88 87 84 90 91 90 87 87 88 83 81 81 82
93 98 102 94 88 87 94 97 103 109 111 110 108 106 99 96 93 88 85 84 89 90 92 92 93 94 91 90 87 86 82 75
86 89 94 92 90 87 84 88 94 100 105 107 106 103 103 101 99 96 92 83 85 90 89 89 94 97 90 91 94 91 85 76
79 79 81 81 81 77 73 77 85 94 97 101 103 102 102 101 105 95 95 89 84 81 79 86 89 83 84 82 80 87 83 81
68 68 67 69 72 69 68 69 74 83 89 93 93 95 93 91 85 92 95 89 86 78 71 73 80 84 76 75 71 81 87 91
57 54 58 63 65 67 70 70 71 74 77 81 82 81 79 74 77 81 82 83 87 82 73 63 67 75 78 68 69 83 94 98
53 53 58 63 66 69 72 72 72 70 71 72 74 73 68 72 74 78 80 81 81 78 77 64 61 66 72 73 83 95 104 103
Wind_Direction_500mb
33 24 20 12 4 1 350 334 334 320 270 257 256 257 257 260 260 261 265 265 264 263 263 263 261 260 257 255 255 254 254 255
22 16 11 11 7 356 349 344 335 331 320 279 264 260 260 258 259 260 262 263 262 263 262 262 261 260 257 255 254 253 254 254
6 3 3 8 8 3 357 351 348 343 329 313 287 270 262 260 260 262 262 262 261 260 255 256 256 256 255 254 252 251 251 251
354 357 1 7 359 351 347 346 347 342 337 328 311 298 283 273 266 263 263 263 262 260 257 255 252 254 257 256 255 254 253 252
4 11 11 359 356 356 352 349 343 339 337 332 327 316 299 292 279 268 264 262 260 258 256 255 256 254 252 252 252 251 252 251
30 17 3 356 350 348 348 343 343 335 334 329 322 316 308 303 295 285 275 267 263 260 256 254 252 253 252 252 253 253 253 253
11 4 358 355 350 344 342 341 343 341 330 328 326 313 305 304 302 290 281 276 266 261 256 254 252 252 252 252 252 254 252 253
357 351 348 346 343 339 337 334 335 338 335 325 320 322 311 300 296 294 288 281 274 261 257 256 254 253 253 253 255 254 254 253
343 339 339 338 335 330 330 331 331 329 328 329 320 316 320 312 301 296 292 286 281 274 259 258 257 255 254 253 252 253 254 253
332 332 330 331 331 328 326 324 327 325 322 321 322 316 311 312 313 303 295 288 281 278 272 259 258 256 255 251 248 248 247 250
329 328 326 324 324 323 323 322 321 320 318 318 316 313 310 306 306 310 300 289 283 277 273 266 260 256 252 249 247 247 247 246
321 321 320 320 319 317 317 318 317 314 311 311 312 309 304 302 299 300 304 295 284 276 272 271 260 257 254 250 246 244 243 241
316 315 316 316 315 312 311 312 310 309 307 306 307 306 304 301 296 295 295 296 290 281 275 268 265 259 253 251 249 246 245 245
317 315 315 315 315 311 308 307 305 303 302 302 302 303 302 300 297 292 290 290 290 286 279 274 268 261 257 251 246 245 243 244
318 315 312 316 314 311 309 308 304 301 300 300 300 300 300 299 296 293 287 285 285 286 284 279 273 266 255 251 247 241 237 237
322 319 315 315 313 314 314 309 304 301 301 300 300 300 298 296 294 293 288 285 282 279 279 277 274 271 267 256 248 244 238 229
323 322 322 322 321 323 318 313 308 304 303 303 303 301 299 300 297 292 290 289 287 281 273 271 271 270 270 266 256 243 237 223
331 330 329 329 331 332 327 320 315 310 308 307 305 304 303 300 300 297 295 292 289 285 280 270 264 263 261 263 258 242 233 227
340 340 339 341 341 341 338 334 328 321 315 314 313 309 305 302 300 292 289 289 290 290 288 283 270 262 260 258 251 236 232 229
349 349 351 351 352 350 347 343 341 336 331 326 321 317 312 307 300 294 290 287 287 290 288 288 272 264 258 251 238 231 226 223
Wind_Speed_850mb
34 41 41 37 34 30 32 30 29 28 41 56 66 75 82 89 99 102 101 98 94 92 90 86 85 82 80 81 82 89 92 94
40 41 44 36 36 35 36 35 30 29 29 35 51 60 66 78 86 92 94 98 96 93 92 93 92 88 85 84 83 87 88 90
44 45 45 40 40 41 45 44 40 39 36 31 33 45 59 70 78 84 90 92 94 93 93 95 95 93 92 89 87 90 91 91
49 49 48 38 37 41 42 45 46 44 44 39 36 38 43 54 64 74 82 87 90 90 95 97 99 98 97 93 90 92 92 93
42 36 31 38 45 48 48 46 49 45 43 45 44 42 44 48 51 59 68 78 84 87 89 91 94 97 98 97 94 95 94 92
28 29 42 49 58 58 56 57 56 57 55 50 48 47 46 48 51 55 62 67 74 79 84 89 91 96 95 96 96 95 92 92
39 46 55 62 65 66 67 66 65 63 56 54 57 55 51 51 52 53 58 64 69 75 81 85 92 97 96 95 95 94 93 94
52 59 63 68 72 75 78 79 73 66 63 60 58 61 59 58 58 57 57 61 69 77 82 88 90 94 94 93 92 93 92 91
60 68 72 74 74 80 84 85 84 80 71 65 67 70 67 66 66 63 61 63 68 70 78 83 85 87 85 84 85 87 83 81
64 70 78 82 85 91 88 88 88 89 89 79 68 72 76 75 73 71 69 69 68 71 72 81 86 83 81 77 80 83 85 84
77 81 84 87 92 96 97 95 91 93 93 93 86 77 77 78 79 78 73 77 71 75 75 74 80 79 81 79 81 84 83 79
85 90 92 93 95 98 100 100 101 95 95 97 95 90 81 80 78 80 81 79 80 76 77 81 77 79 79 78 79 81 79 80
93 96 97 97 96 100 104 105 103 104 106 104 101 97 92 85 82 80 83 82 81 84 83 83 83 82 82 84 84 81 81 84
96 100 95 91 89 95 100 103 109 112 110 109 105 99 98 94 88 84 81 88 87 84 90 91 90 87 87 88 83 81 81 82
93 98 102 94 88 87 94 97 103 109 111 110 108 106 99 96 93 88 85 84 89 90 92 92 93 94 91 90 87 86 82 75
86 89 94 92 90 87 84 88 94 100 105 107 106 103 103 101 99 96 92 83 85 90 89 89 94 97 90 91 94 91 85 76
79 79 81 81 81 77 73 77 85 94 97 101 103 102 102 101 105 95 95 89 84 81 79 86 89 83 84 82 80 87 83 81
68 68 67 69 72 69 68 69 74 83 89 93 93 95 93 91 85 92 95 89 86 78 71 73 80 84 76 75 71 81 87 91
57 54 58 63 65 67 70 70 71 74 77 81 82 81 79 74 77 81 82 83 87 82 73 63 67 75 78 68 69 83 94 98
53 53 58 63 66 69 72 72 72 70 71 72 74 73 68 72 74 78 80 81 81 78 77 64 61 66 72 73 83 95 104 103
Wind_Direction_850mb
33 24 20 12 4 1 350 334 334 320 270 257 256 257 257 260 260 261 265 265 264 263 263 263 261 260 257 255 255 254 254 255
22 16 11 11 7 356 349 344 335 331 320 279 264 260 260 258 259 260 262 263 262 263 262 262 261 260 257 255 254 253 254 254
6 3 3 8 8 3 357 351 348 343 329 313 287 270 262 260 260 262 262 262 261 260 255 256 256 256 255 254 252 251 251 251
354 357 1 7 359 351 347 346 347 342 337 328 311 298 283 273 266 263 263 263 262 260 257 255 252 254 257 256 255 254 253 252
4 11 11 359 356 356 352 349 343 339 337 332 327 316 299 292 279 268 264 262 260 258 256 255 256 254 252 252 252 251 252 251
30 17 3 356 350 348 348 343 343 335 334 329 322 316 308 303 295 285 275 267 263 260 256 254 252 253 252 252 253 253 253 253
11 4 358 355 350 344 342 341 343 341 330 328 326 313 305 304 302 290 281 276 266 261 256 254 252 252 252 252 252 254 252 253
357 351 348 346 343 339 337 334 335 338 335 325 320 322 311 300 296 294 288 281 274 261 257 256 254 253 253 253 255 254 254 253
343 339 339 338 335 330 330 331 331 329 328 329 320 316 320 312 301 296 292 286 281 274 259 258 257 255 254 253 252 253 254 253
332 332 330 331 331 328 326 324 327 325 322 321 322 316 311 312 313 303 295 288 281 278 272 259 258 256 255 251 248 248 247 250
329 328 326 324 324 323 323 322 321 320 318 318 316 313 310 306 306 310 300 289 283 277 273 266 260 256 252 249 247 247 247 246
321 321 320 320 319 317 317 318 317 314 311 311 312 309 304 302 299 300 304 295 284 276 272 271 260 257 254 250 246 244 243 241
316 315 316 316 315 312 311 312 310 309 307 306 307 306 304 301 296 295 295 296 290 281 275 268 265 259 253 251 249 246 245 245
317 315 315 315 315 311 308 307 305 303 302 302 302 303 302 300 297 292 290 290 290 286 279 274 268 261 257 251 246 245 243 244
318 315 312 316 314 311 309 308 304 301 300 300 300 300 300 299 296 293 287 285 285 286 284 279 273 266 255 251 247 241 237 237
322 319 315 315 313 314 314 309 304 301 301 300 300 300 298 296 294 293 288 285 282 279 279 277 274 271 267 256 248 244 238 229
323 322 322 322 321 323 318 313 308 304 303 303 303 301 299 300 297 292 290 289 287 281 273 271 271 270 270 266 256 243 237 223
331 330 329 329 331 332 327 320 315 310 308 307 305 304 303 300 300 297 295 292 289 285 280 270 264 263 261 263 258 242 233 227
340 340 339 341 341 341 338 334 328 321 315 314 313 309 305 302 300 292 289 289 290 290 288 283 270 262 260 258 251 236 232 229
349 349 351 351 352 350 347 343 341 336 331 326 321 317 312 307 300 294 290 287 287 290 288 288 272 264 258 251 238 231 226 223